GEFSGL_prec_meanprecacc_324.txt.gz
Total_Precipitation_Accumulation
1.50 1.61 1.57 1.52 1.54 1.56 1.47 1.37 1.33 1.32 1.32 1.40 1.46 1.61 1.78 2.01 2.23 2.38 2.37 2.29 2.27 2.22 2.15 2.28 2.43 2.49 2.60 2.65 2.67 2.57 2.45 2.41 2.32 2.07 1.88 1.81 2.02 2.05 1.99 1.90 1.74 1.68 1.66
1.34 1.45 1.56 1.48 1.45 1.47 1.39 1.42 1.32 1.22 1.22 1.24 1.39 1.58 1.69 1.77 1.87 1.98 2.04 2.07 2.09 2.11 2.05 2.02 2.10 2.19 2.31 2.48 2.60 2.56 2.57 2.47 2.39 2.35 2.16 1.93 1.86 1.94 2.02 2.13 2.01 1.77 1.71
1.48 1.59 1.61 1.53 1.49 1.48 1.34 1.41 1.34 1.25 1.23 1.22 1.28 1.44 1.54 1.62 1.67 1.73 1.86 1.96 1.96 1.90 1.89 1.78 1.77 1.88 2.02 2.17 2.25 2.37 2.51 2.54 2.55 2.50 2.42 2.22 1.96 1.97 2.06 2.12 2.13 2.17 1.90
1.70 1.74 1.65 1.58 1.54 1.51 1.38 1.31 1.29 1.27 1.25 1.27 1.38 1.44 1.49 1.50 1.63 1.68 1.76 1.76 1.71 1.62 1.61 1.55 1.53 1.56 1.69 1.87 1.99 2.19 2.41 2.53 2.59 2.58 2.53 2.29 2.09 2.05 2.04 2.09 2.21 2.26 2.21
1.62 1.64 1.63 1.51 1.38 1.35 1.40 1.23 1.23 1.28 1.27 1.33 1.39 1.46 1.50 1.52 1.58 1.66 1.61 1.52 1.51 1.50 1.44 1.28 1.23 1.30 1.35 1.48 1.49 1.77 2.05 2.28 2.37 2.42 2.43 2.27 2.05 1.97 1.83 1.89 2.05 2.23 2.27
1.49 1.46 1.43 1.35 1.32 1.29 1.27 1.20 1.17 1.17 1.21 1.24 1.26 1.42 1.53 1.43 1.62 1.61 1.42 1.28 1.26 1.33 1.31 1.18 1.11 1.13 1.07 1.10 1.15 1.38 1.70 1.87 2.00 2.16 2.22 2.10 1.92 1.84 1.91 1.92 1.92 1.97 1.99
1.28 1.23 1.15 1.12 1.11 1.12 1.11 1.16 1.18 1.17 1.17 1.19 1.14 1.24 1.32 1.42 1.48 1.30 1.30 1.21 1.21 1.21 1.25 1.27 1.16 1.06 1.16 1.04 1.02 1.12 1.24 1.38 1.53 1.76 1.94 1.91 2.01 1.92 1.82 1.75 1.77 1.81 1.80
1.16 1.13 1.09 1.03 0.97 0.97 0.98 1.05 1.14 1.13 1.09 1.11 1.09 1.04 1.09 1.26 1.27 1.12 1.20 1.12 1.22 1.27 1.28 1.38 1.38 1.27 1.24 1.33 1.24 1.23 1.19 1.15 1.28 1.18 1.33 1.70 1.86 1.94 1.90 1.91 2.01 1.93 1.76
0.88 0.93 0.90 0.84 0.86 0.93 0.92 1.05 1.10 1.03 1.02 1.00 1.03 1.01 1.02 1.08 1.10 1.02 1.07 1.09 1.24 1.24 1.18 1.32 1.38 1.29 1.41 1.54 1.57 1.58 1.47 1.30 1.45 1.48 1.36 1.45 1.63 1.70 1.80 1.86 1.90 1.83 1.76
0.65 0.67 0.73 0.73 0.75 0.82 0.91 1.00 1.04 0.99 1.02 0.98 0.94 0.91 0.90 0.91 1.00 0.91 1.01 1.09 1.18 1.20 1.21 1.25 1.45 1.36 1.37 1.38 1.41 1.52 1.47 1.29 1.15 1.18 1.16 1.06 1.01 1.14 1.37 1.47 1.73 1.87 1.81
0.59 0.59 0.62 0.64 0.69 0.80 0.88 0.84 0.84 0.88 0.94 0.94 0.96 0.90 0.85 0.90 1.01 1.01 1.06 1.07 1.14 1.19 1.28 1.31 1.30 1.44 1.30 1.26 1.24 1.20 1.30 1.30 1.29 1.32 1.36 1.23 1.13 1.09 1.11 1.17 1.38 1.64 1.79
0.52 0.56 0.53 0.51 0.53 0.61 0.69 0.77 0.77 0.77 0.82 0.81 0.82 0.81 0.78 0.86 0.92 0.90 0.92 0.98 1.08 1.07 1.12 1.13 1.11 1.26 1.12 1.06 0.99 1.03 1.15 1.22 1.27 1.41 1.39 1.31 1.27 1.21 1.18 1.20 1.27 1.37 1.46
0.54 0.56 0.53 0.50 0.50 0.54 0.62 0.73 0.80 0.83 0.82 0.80 0.74 0.71 0.72 0.74 0.80 0.83 0.79 0.79 0.85 0.86 0.85 1.00 1.04 1.04 0.99 0.90 0.96 1.01 1.04 1.07 1.18 1.27 1.26 1.19 1.19 1.25 1.28 1.26 1.29 1.33 1.29
0.50 0.55 0.55 0.56 0.56 0.56 0.59 0.65 0.79 0.85 0.78 0.72 0.71 0.71 0.75 0.76 0.72 0.71 0.73 0.72 0.73 0.79 0.79 0.87 0.92 0.89 0.89 0.89 0.93 0.97 1.00 1.05 1.13 1.16 1.15 1.16 1.15 1.22 1.30 1.27 1.29 1.36 1.41
0.46 0.50 0.50 0.53 0.58 0.56 0.52 0.53 0.63 0.70 0.75 0.79 0.79 0.79 0.82 0.83 0.75 0.70 0.66 0.70 0.74 0.82 0.90 0.85 0.83 0.83 0.84 0.91 0.93 0.94 0.99 1.05 1.05 1.03 1.09 1.13 1.12 1.15 1.18 1.17 1.22 1.28 1.31
0.46 0.49 0.50 0.52 0.55 0.55 0.52 0.52 0.56 0.58 0.67 0.71 0.72 0.74 0.67 0.64 0.66 0.61 0.59 0.64 0.71 0.79 0.92 0.96 0.98 1.03 1.06 1.06 1.03 0.95 0.91 0.94 1.01 1.08 1.13 1.16 1.16 1.14 1.15 1.14 1.17 1.27 1.28
0.55 0.54 0.55 0.54 0.51 0.51 0.54 0.55 0.56 0.53 0.52 0.55 0.58 0.57 0.57 0.60 0.58 0.59 0.60 0.63 0.67 0.73 0.86 1.01 1.04 1.03 0.99 0.99 0.96 0.91 0.85 0.82 0.86 0.98 1.13 1.23 1.24 1.22 1.23 1.26 1.23 1.19 1.18
0.68 0.73 0.67 0.60 0.56 0.54 0.54 0.59 0.62 0.64 0.58 0.50 0.50 0.53 0.55 0.57 0.58 0.61 0.72 0.79 0.74 0.74 0.82 0.90 0.93 0.92 0.88 0.84 0.80 0.77 0.79 0.79 0.81 0.86 0.90 1.00 1.16 1.26 1.32 1.33 1.36 1.39 1.36
0.64 0.69 0.71 0.69 0.65 0.63 0.63 0.69 0.69 0.63 0.57 0.55 0.52 0.52 0.56 0.58 0.61 0.63 0.68 0.70 0.69 0.70 0.73 0.74 0.71 0.71 0.72 0.72 0.72 0.75 0.81 0.81 0.82 0.84 0.84 0.86 0.96 1.12 1.28 1.37 1.40 1.48 1.45
0.50 0.58 0.66 0.70 0.71 0.69 0.71 0.72 0.70 0.66 0.57 0.55 0.52 0.51 0.53 0.54 0.52 0.55 0.56 0.60 0.65 0.67 0.67 0.67 0.69 0.69 0.67 0.67 0.70 0.74 0.83 0.86 0.83 0.86 0.90 0.93 1.00 1.07 1.13 1.22 1.36 1.40 1.31
0.44 0.46 0.53 0.58 0.63 0.63 0.66 0.69 0.70 0.69 0.64 0.60 0.57 0.56 0.58 0.54 0.55 0.55 0.56 0.59 0.62 0.64 0.64 0.66 0.69 0.69 0.68 0.73 0.74 0.76 0.82 0.86 0.86 0.86 0.88 0.94 1.01 1.10 1.15 1.18 1.20 1.25 1.29
0.48 0.47 0.48 0.50 0.54 0.57 0.61 0.63 0.67 0.69 0.68 0.65 0.64 0.65 0.69 0.61 0.59 0.60 0.62 0.64 0.66 0.67 0.68 0.72 0.75 0.73 0.70 0.73 0.78 0.81 0.84 0.85 0.85 0.89 0.96 0.99 1.02 1.06 1.14 1.22 1.24 1.24 1.27
0.47 0.45 0.45 0.50 0.53 0.57 0.58 0.58 0.60 0.63 0.63 0.62 0.59 0.61 0.61 0.60 0.61 0.63 0.66 0.67 0.68 0.71 0.74 0.81 0.83 0.81 0.79 0.79 0.81 0.82 0.85 0.87 0.89 0.92 0.99 1.03 1.03 1.03 1.09 1.15 1.17 1.19 1.21
0.50 0.50 0.53 0.56 0.55 0.53 0.55 0.57 0.59 0.60 0.62 0.62 0.64 0.65 0.64 0.63 0.63 0.63 0.65 0.67 0.67 0.68 0.70 0.75 0.81 0.83 0.85 0.87 0.88 0.86 0.87 0.93 0.93 0.93 1.02 1.12 1.13 1.10 1.11 1.15 1.15 1.17 1.25
0.59 0.58 0.61 0.63 0.64 0.61 0.59 0.59 0.61 0.65 0.67 0.70 0.72 0.73 0.70 0.69 0.68 0.66 0.66 0.67 0.70 0.70 0.70 0.70 0.75 0.82 0.87 0.93 0.92 0.90 1.00 1.04 1.01 0.94 0.93 1.04 1.10 1.13 1.19 1.22 1.26 1.35 1.47
0.64 0.66 0.68 0.67 0.67 0.67 0.69 0.69 0.68 0.71 0.74 0.75 0.77 0.79 0.79 0.80 0.78 0.77 0.76 0.73 0.72 0.70 0.70 0.73 0.76 0.77 0.81 0.88 0.96 1.04 1.05 0.97 0.97 1.04 0.99 1.00 1.07 1.13 1.26 1.36 1.40 1.51 1.59

GEFSGL_prec_meanprecacc_330.txt.gz
Total_Precipitation_Accumulation
1.51 1.61 1.58 1.53 1.55 1.57 1.50 1.42 1.38 1.36 1.35 1.42 1.48 1.63 1.80 2.03 2.25 2.39 2.38 2.30 2.27 2.23 2.16 2.29 2.44 2.50 2.61 2.67 2.70 2.61 2.50 2.46 2.35 2.09 1.89 1.82 2.05 2.08 2.01 1.92 1.77 1.71 1.69
1.34 1.45 1.57 1.49 1.47 1.48 1.40 1.45 1.35 1.27 1.25 1.26 1.40 1.60 1.71 1.79 1.90 1.99 2.05 2.08 2.10 2.12 2.06 2.03 2.11 2.20 2.32 2.49 2.61 2.59 2.61 2.51 2.43 2.38 2.16 1.94 1.87 1.96 2.04 2.15 2.04 1.80 1.74
1.49 1.60 1.62 1.54 1.51 1.50 1.36 1.42 1.36 1.29 1.26 1.23 1.29 1.46 1.55 1.64 1.70 1.76 1.88 1.97 1.98 1.91 1.90 1.79 1.78 1.89 2.03 2.18 2.26 2.38 2.54 2.58 2.60 2.53 2.43 2.23 1.97 1.99 2.07 2.14 2.15 2.20 1.94
1.71 1.75 1.66 1.60 1.56 1.53 1.40 1.32 1.31 1.30 1.27 1.27 1.39 1.45 1.51 1.52 1.66 1.71 1.79 1.78 1.73 1.64 1.63 1.56 1.54 1.57 1.70 1.87 2.00 2.21 2.43 2.57 2.64 2.62 2.56 2.31 2.11 2.07 2.05 2.12 2.24 2.29 2.24
1.63 1.65 1.64 1.52 1.41 1.38 1.42 1.25 1.25 1.32 1.32 1.35 1.41 1.48 1.52 1.53 1.59 1.68 1.63 1.54 1.53 1.52 1.46 1.28 1.23 1.31 1.36 1.50 1.51 1.79 2.07 2.32 2.42 2.47 2.47 2.30 2.07 1.99 1.84 1.91 2.07 2.25 2.29
1.51 1.47 1.44 1.36 1.36 1.34 1.30 1.24 1.21 1.22 1.25 1.26 1.28 1.44 1.55 1.45 1.64 1.63 1.44 1.29 1.27 1.35 1.32 1.19 1.12 1.14 1.08 1.11 1.16 1.40 1.71 1.89 2.04 2.20 2.27 2.13 1.95 1.86 1.93 1.94 1.95 1.99 2.01
1.29 1.25 1.16 1.13 1.15 1.17 1.16 1.21 1.23 1.21 1.22 1.22 1.17 1.27 1.34 1.44 1.50 1.32 1.31 1.21 1.22 1.22 1.26 1.28 1.17 1.08 1.18 1.06 1.03 1.13 1.24 1.39 1.55 1.79 1.98 1.95 2.04 1.94 1.85 1.78 1.79 1.83 1.83
1.17 1.15 1.10 1.05 1.02 1.03 1.04 1.11 1.20 1.17 1.14 1.15 1.13 1.08 1.12 1.28 1.30 1.14 1.21 1.13 1.23 1.28 1.30 1.39 1.39 1.28 1.25 1.34 1.25 1.24 1.19 1.16 1.29 1.21 1.36 1.74 1.91 1.98 1.93 1.94 2.04 1.96 1.78
0.89 0.94 0.92 0.86 0.90 0.98 0.97 1.09 1.17 1.09 1.07 1.03 1.06 1.04 1.05 1.10 1.12 1.04 1.08 1.10 1.24 1.25 1.19 1.33 1.39 1.30 1.42 1.55 1.58 1.59 1.48 1.30 1.46 1.49 1.38 1.49 1.68 1.75 1.84 1.89 1.92 1.85 1.78
0.66 0.68 0.74 0.75 0.78 0.87 0.96 1.06 1.10 1.06 1.06 0.99 0.96 0.95 0.94 0.93 1.03 0.92 1.02 1.10 1.19 1.21 1.22 1.26 1.46 1.37 1.39 1.40 1.43 1.53 1.49 1.30 1.16 1.19 1.18 1.09 1.05 1.18 1.41 1.50 1.76 1.89 1.83
0.60 0.60 0.63 0.66 0.73 0.84 0.93 0.89 0.88 0.92 0.96 0.96 0.98 0.92 0.88 0.93 1.04 1.03 1.07 1.08 1.15 1.20 1.30 1.33 1.31 1.47 1.33 1.28 1.25 1.21 1.31 1.32 1.30 1.34 1.38 1.26 1.16 1.13 1.15 1.20 1.41 1.67 1.82
0.54 0.58 0.55 0.54 0.58 0.66 0.74 0.82 0.81 0.80 0.83 0.82 0.83 0.83 0.80 0.87 0.94 0.92 0.93 0.98 1.09 1.08 1.13 1.14 1.12 1.28 1.14 1.07 1.00 1.04 1.16 1.23 1.29 1.43 1.41 1.34 1.30 1.24 1.21 1.24 1.30 1.41 1.49
0.56 0.58 0.55 0.53 0.54 0.59 0.66 0.77 0.84 0.86 0.84 0.81 0.75 0.71 0.73 0.75 0.81 0.84 0.80 0.80 0.85 0.87 0.86 1.02 1.06 1.05 1.00 0.91 0.97 1.03 1.05 1.08 1.20 1.29 1.29 1.22 1.22 1.28 1.31 1.28 1.32 1.37 1.33
0.53 0.58 0.57 0.58 0.59 0.60 0.63 0.69 0.83 0.87 0.79 0.73 0.73 0.72 0.76 0.76 0.73 0.71 0.73 0.72 0.73 0.80 0.80 0.90 0.94 0.91 0.90 0.90 0.94 0.99 1.01 1.06 1.14 1.18 1.17 1.19 1.19 1.27 1.35 1.32 1.32 1.41 1.46
0.49 0.53 0.52 0.56 0.61 0.61 0.58 0.58 0.66 0.72 0.76 0.80 0.79 0.79 0.83 0.83 0.76 0.70 0.66 0.70 0.75 0.84 0.92 0.88 0.86 0.85 0.86 0.92 0.95 0.95 1.01 1.06 1.06 1.05 1.11 1.15 1.15 1.20 1.24 1.24 1.28 1.33 1.35
0.48 0.51 0.52 0.56 0.61 0.60 0.57 0.58 0.60 0.60 0.68 0.72 0.72 0.74 0.67 0.65 0.66 0.62 0.60 0.64 0.72 0.81 0.95 1.00 1.02 1.07 1.09 1.08 1.05 0.97 0.93 0.97 1.03 1.10 1.15 1.18 1.19 1.17 1.20 1.21 1.23 1.32 1.32
0.57 0.56 0.57 0.58 0.57 0.56 0.58 0.61 0.60 0.56 0.55 0.57 0.58 0.57 0.57 0.60 0.59 0.59 0.60 0.64 0.68 0.75 0.89 1.06 1.09 1.08 1.04 1.02 0.98 0.93 0.87 0.84 0.88 1.00 1.15 1.25 1.26 1.25 1.27 1.31 1.29 1.25 1.22
0.70 0.75 0.68 0.63 0.61 0.58 0.57 0.63 0.66 0.66 0.60 0.51 0.51 0.54 0.56 0.58 0.59 0.62 0.73 0.81 0.76 0.75 0.83 0.93 0.96 0.95 0.91 0.86 0.82 0.79 0.81 0.81 0.82 0.87 0.91 1.02 1.18 1.28 1.35 1.37 1.41 1.44 1.41
0.66 0.72 0.74 0.73 0.70 0.67 0.66 0.73 0.73 0.65 0.59 0.57 0.54 0.54 0.57 0.60 0.62 0.64 0.69 0.71 0.70 0.71 0.74 0.74 0.72 0.72 0.73 0.73 0.73 0.76 0.82 0.82 0.83 0.85 0.85 0.87 0.97 1.13 1.30 1.40 1.45 1.53 1.50
0.51 0.61 0.70 0.75 0.76 0.75 0.77 0.77 0.76 0.69 0.59 0.56 0.54 0.53 0.55 0.55 0.53 0.55 0.57 0.61 0.67 0.68 0.67 0.68 0.70 0.70 0.68 0.68 0.71 0.75 0.84 0.87 0.85 0.87 0.92 0.94 1.02 1.09 1.15 1.25 1.40 1.44 1.36
0.46 0.48 0.57 0.63 0.66 0.68 0.71 0.75 0.77 0.74 0.67 0.62 0.59 0.57 0.59 0.55 0.56 0.55 0.56 0.60 0.63 0.65 0.65 0.67 0.69 0.70 0.69 0.74 0.76 0.78 0.83 0.88 0.88 0.88 0.89 0.96 1.03 1.12 1.17 1.20 1.23 1.28 1.33
0.51 0.49 0.51 0.56 0.59 0.61 0.66 0.68 0.72 0.74 0.72 0.68 0.67 0.68 0.71 0.63 0.60 0.61 0.62 0.64 0.67 0.68 0.68 0.73 0.76 0.73 0.71 0.74 0.80 0.83 0.86 0.87 0.87 0.91 0.97 1.01 1.05 1.09 1.16 1.25 1.26 1.26 1.29
0.49 0.47 0.49 0.55 0.57 0.62 0.64 0.62 0.64 0.65 0.66 0.64 0.64 0.65 0.65 0.62 0.63 0.64 0.67 0.68 0.69 0.72 0.75 0.82 0.84 0.82 0.80 0.80 0.82 0.84 0.87 0.89 0.91 0.94 1.01 1.05 1.06 1.07 1.12 1.18 1.19 1.21 1.23
0.52 0.52 0.55 0.60 0.59 0.58 0.61 0.62 0.62 0.63 0.64 0.64 0.66 0.68 0.68 0.66 0.67 0.65 0.67 0.68 0.68 0.69 0.71 0.76 0.82 0.84 0.86 0.88 0.89 0.88 0.88 0.95 0.95 0.95 1.04 1.15 1.16 1.13 1.14 1.18 1.19 1.19 1.28
0.61 0.60 0.63 0.67 0.68 0.66 0.64 0.64 0.65 0.68 0.70 0.72 0.74 0.75 0.73 0.72 0.70 0.69 0.68 0.69 0.72 0.72 0.71 0.72 0.77 0.84 0.89 0.94 0.93 0.91 1.03 1.07 1.04 0.97 0.96 1.07 1.13 1.16 1.22 1.25 1.30 1.38 1.50
0.67 0.68 0.70 0.71 0.72 0.73 0.74 0.74 0.73 0.75 0.78 0.79 0.80 0.81 0.81 0.82 0.81 0.79 0.78 0.75 0.74 0.72 0.73 0.76 0.79 0.81 0.85 0.92 0.99 1.07 1.09 1.00 1.00 1.07 1.02 1.02 1.09 1.15 1.28 1.39 1.43 1.55 1.63

GEFSGL_prec_meanprecacc_336.txt.gz
Total_Precipitation_Accumulation
1.55 1.64 1.59 1.54 1.56 1.58 1.50 1.42 1.40 1.39 1.38 1.46 1.54 1.69 1.85 2.07 2.28 2.41 2.39 2.33 2.30 2.26 2.18 2.30 2.45 2.50 2.62 2.67 2.71 2.62 2.51 2.48 2.37 2.09 1.90 1.82 2.05 2.08 2.03 1.94 1.78 1.72 1.70
1.39 1.50 1.59 1.50 1.47 1.49 1.41 1.46 1.37 1.29 1.28 1.30 1.45 1.66 1.78 1.86 1.95 2.03 2.09 2.12 2.13 2.15 2.09 2.05 2.12 2.20 2.32 2.50 2.62 2.60 2.61 2.52 2.45 2.39 2.17 1.94 1.88 1.97 2.04 2.17 2.05 1.80 1.75
1.53 1.63 1.64 1.55 1.52 1.50 1.36 1.43 1.37 1.31 1.28 1.27 1.34 1.51 1.61 1.71 1.77 1.81 1.93 2.02 2.03 1.96 1.94 1.82 1.79 1.90 2.03 2.18 2.27 2.39 2.55 2.59 2.61 2.55 2.44 2.23 1.98 1.99 2.08 2.14 2.15 2.21 1.95
1.74 1.80 1.69 1.61 1.57 1.54 1.40 1.33 1.32 1.32 1.30 1.31 1.43 1.50 1.55 1.57 1.70 1.75 1.83 1.82 1.78 1.68 1.65 1.57 1.55 1.58 1.70 1.88 2.00 2.21 2.44 2.58 2.65 2.63 2.57 2.31 2.11 2.07 2.05 2.12 2.24 2.30 2.24
1.65 1.67 1.67 1.55 1.43 1.39 1.43 1.26 1.26 1.34 1.35 1.39 1.45 1.52 1.56 1.57 1.63 1.72 1.67 1.57 1.56 1.54 1.47 1.29 1.25 1.32 1.37 1.51 1.51 1.79 2.08 2.32 2.43 2.48 2.48 2.31 2.07 1.99 1.85 1.92 2.08 2.26 2.29
1.52 1.49 1.46 1.39 1.39 1.36 1.32 1.26 1.23 1.24 1.29 1.32 1.34 1.48 1.59 1.48 1.68 1.68 1.48 1.32 1.30 1.36 1.34 1.20 1.13 1.15 1.10 1.13 1.18 1.42 1.72 1.90 2.05 2.21 2.28 2.15 1.96 1.87 1.93 1.94 1.96 2.00 2.02
1.32 1.27 1.19 1.16 1.18 1.20 1.19 1.24 1.25 1.24 1.25 1.28 1.23 1.32 1.38 1.48 1.53 1.35 1.34 1.24 1.24 1.25 1.27 1.29 1.17 1.09 1.19 1.07 1.05 1.15 1.25 1.40 1.56 1.80 1.99 1.96 2.05 1.96 1.86 1.78 1.80 1.84 1.84
1.19 1.18 1.13 1.08 1.05 1.06 1.08 1.15 1.24 1.20 1.18 1.22 1.20 1.14 1.18 1.32 1.33 1.17 1.23 1.14 1.24 1.29 1.31 1.40 1.39 1.29 1.27 1.36 1.27 1.25 1.20 1.16 1.30 1.21 1.37 1.75 1.92 2.00 1.95 1.95 2.05 1.97 1.79
0.92 0.97 0.95 0.89 0.93 1.02 1.02 1.14 1.22 1.14 1.13 1.11 1.13 1.09 1.11 1.16 1.16 1.07 1.10 1.11 1.25 1.26 1.20 1.34 1.40 1.32 1.44 1.57 1.60 1.60 1.49 1.31 1.47 1.50 1.39 1.50 1.69 1.77 1.86 1.91 1.94 1.88 1.80
0.69 0.72 0.78 0.78 0.82 0.90 1.01 1.11 1.14 1.11 1.11 1.06 1.03 1.00 0.99 0.98 1.07 0.95 1.04 1.11 1.19 1.22 1.22 1.27 1.47 1.39 1.41 1.41 1.44 1.54 1.49 1.31 1.17 1.19 1.18 1.11 1.06 1.19 1.43 1.52 1.77 1.91 1.86
0.63 0.63 0.66 0.70 0.76 0.88 0.99 0.95 0.92 0.95 1.00 1.01 1.03 0.96 0.91 0.95 1.06 1.05 1.10 1.09 1.16 1.21 1.30 1.33 1.32 1.47 1.34 1.28 1.26 1.22 1.32 1.32 1.31 1.35 1.39 1.26 1.17 1.14 1.17 1.22 1.43 1.68 1.84
0.56 0.60 0.57 0.56 0.61 0.69 0.78 0.86 0.85 0.84 0.88 0.87 0.86 0.85 0.81 0.88 0.95 0.93 0.95 1.00 1.10 1.08 1.13 1.14 1.12 1.28 1.14 1.08 1.01 1.05 1.17 1.24 1.30 1.43 1.42 1.34 1.30 1.25 1.22 1.25 1.32 1.42 1.51
0.58 0.60 0.57 0.55 0.57 0.63 0.70 0.80 0.89 0.91 0.89 0.85 0.77 0.74 0.74 0.75 0.81 0.85 0.82 0.81 0.86 0.87 0.86 1.02 1.06 1.06 1.00 0.92 0.98 1.03 1.06 1.09 1.20 1.30 1.29 1.22 1.22 1.29 1.31 1.29 1.33 1.38 1.35
0.56 0.61 0.60 0.61 0.63 0.64 0.67 0.73 0.86 0.93 0.85 0.76 0.74 0.74 0.77 0.76 0.73 0.72 0.74 0.73 0.74 0.80 0.81 0.90 0.95 0.91 0.90 0.90 0.95 0.99 1.02 1.07 1.15 1.18 1.18 1.19 1.19 1.27 1.36 1.32 1.33 1.42 1.48
0.53 0.57 0.57 0.60 0.65 0.65 0.61 0.61 0.69 0.75 0.81 0.83 0.81 0.81 0.83 0.83 0.76 0.70 0.67 0.70 0.75 0.84 0.93 0.88 0.87 0.86 0.86 0.92 0.95 0.95 1.01 1.06 1.07 1.05 1.11 1.15 1.16 1.21 1.25 1.25 1.29 1.34 1.37
0.51 0.55 0.56 0.59 0.65 0.64 0.60 0.60 0.62 0.64 0.73 0.75 0.75 0.76 0.68 0.65 0.67 0.62 0.60 0.64 0.72 0.81 0.96 1.01 1.03 1.07 1.09 1.09 1.06 0.97 0.94 0.97 1.03 1.11 1.15 1.18 1.19 1.18 1.21 1.22 1.25 1.33 1.34
0.59 0.60 0.60 0.61 0.61 0.60 0.63 0.65 0.64 0.60 0.59 0.60 0.61 0.59 0.59 0.62 0.59 0.60 0.60 0.64 0.68 0.75 0.89 1.06 1.09 1.08 1.04 1.03 0.99 0.94 0.87 0.84 0.88 1.01 1.15 1.25 1.26 1.25 1.28 1.32 1.31 1.26 1.24
0.72 0.78 0.73 0.67 0.64 0.61 0.62 0.68 0.69 0.70 0.65 0.56 0.54 0.57 0.58 0.59 0.60 0.63 0.74 0.81 0.76 0.75 0.84 0.93 0.96 0.96 0.92 0.87 0.83 0.79 0.81 0.81 0.83 0.88 0.92 1.02 1.19 1.29 1.35 1.38 1.42 1.45 1.44
0.68 0.74 0.77 0.76 0.73 0.70 0.72 0.78 0.77 0.68 0.61 0.59 0.56 0.57 0.60 0.62 0.64 0.66 0.70 0.72 0.71 0.72 0.74 0.75 0.73 0.73 0.74 0.74 0.74 0.77 0.82 0.82 0.83 0.86 0.86 0.88 0.98 1.14 1.31 1.40 1.45 1.55 1.53
0.53 0.63 0.72 0.76 0.78 0.78 0.82 0.84 0.81 0.73 0.62 0.59 0.56 0.55 0.57 0.57 0.55 0.57 0.58 0.62 0.67 0.68 0.68 0.69 0.71 0.71 0.69 0.69 0.72 0.76 0.84 0.87 0.85 0.87 0.92 0.95 1.02 1.09 1.15 1.25 1.41 1.46 1.38
0.47 0.50 0.58 0.63 0.67 0.70 0.75 0.80 0.81 0.78 0.70 0.66 0.62 0.60 0.62 0.57 0.57 0.56 0.57 0.61 0.63 0.65 0.65 0.67 0.70 0.70 0.69 0.74 0.76 0.78 0.84 0.88 0.88 0.88 0.90 0.96 1.03 1.12 1.18 1.21 1.25 1.30 1.35
0.52 0.50 0.53 0.57 0.60 0.63 0.69 0.71 0.75 0.77 0.75 0.72 0.70 0.72 0.75 0.65 0.62 0.63 0.63 0.66 0.68 0.68 0.69 0.73 0.77 0.74 0.72 0.75 0.80 0.84 0.87 0.88 0.88 0.92 0.98 1.02 1.06 1.10 1.18 1.26 1.28 1.28 1.31
0.51 0.49 0.50 0.57 0.59 0.65 0.67 0.65 0.66 0.67 0.67 0.66 0.66 0.68 0.67 0.65 0.66 0.67 0.69 0.70 0.71 0.74 0.76 0.83 0.84 0.82 0.81 0.81 0.83 0.85 0.88 0.90 0.92 0.96 1.03 1.07 1.07 1.08 1.14 1.20 1.21 1.23 1.25
0.55 0.55 0.58 0.62 0.61 0.61 0.64 0.65 0.64 0.64 0.65 0.65 0.67 0.70 0.70 0.69 0.69 0.68 0.69 0.69 0.69 0.70 0.72 0.77 0.83 0.85 0.87 0.90 0.91 0.89 0.89 0.96 0.96 0.96 1.05 1.16 1.17 1.14 1.16 1.20 1.21 1.21 1.30
0.64 0.63 0.66 0.70 0.71 0.69 0.68 0.67 0.67 0.70 0.71 0.74 0.76 0.76 0.75 0.74 0.72 0.71 0.70 0.71 0.73 0.73 0.73 0.73 0.78 0.85 0.90 0.95 0.95 0.93 1.05 1.09 1.06 0.99 0.97 1.09 1.14 1.18 1.23 1.27 1.32 1.41 1.53
0.69 0.71 0.73 0.73 0.74 0.76 0.78 0.77 0.75 0.78 0.80 0.80 0.81 0.83 0.83 0.84 0.82 0.81 0.80 0.77 0.75 0.73 0.74 0.77 0.80 0.82 0.86 0.93 1.01 1.09 1.11 1.02 1.03 1.10 1.04 1.05 1.12 1.17 1.30 1.40 1.45 1.57 1.66

GEFSGL_prec_meanprecacc_342.txt.gz
Total_Precipitation_Accumulation
1.60 1.68 1.63 1.57 1.59 1.61 1.53 1.44 1.41 1.41 1.40 1.47 1.55 1.70 1.86 2.08 2.29 2.43 2.42 2.36 2.33 2.29 2.20 2.32 2.47 2.52 2.63 2.69 2.72 2.63 2.52 2.49 2.37 2.10 1.90 1.82 2.05 2.10 2.04 1.96 1.80 1.73 1.72
1.46 1.57 1.65 1.55 1.51 1.51 1.43 1.47 1.38 1.31 1.30 1.31 1.47 1.67 1.79 1.88 1.97 2.05 2.11 2.15 2.16 2.18 2.12 2.07 2.14 2.23 2.35 2.51 2.63 2.61 2.62 2.53 2.46 2.40 2.18 1.94 1.88 1.97 2.06 2.18 2.05 1.81 1.77
1.58 1.72 1.71 1.61 1.55 1.53 1.38 1.45 1.39 1.33 1.31 1.30 1.36 1.52 1.63 1.72 1.79 1.84 1.95 2.05 2.06 1.98 1.96 1.85 1.82 1.92 2.06 2.21 2.28 2.40 2.55 2.60 2.62 2.56 2.45 2.23 1.98 1.99 2.08 2.15 2.16 2.22 1.96
1.77 1.85 1.74 1.66 1.60 1.56 1.42 1.36 1.34 1.35 1.33 1.35 1.46 1.52 1.57 1.59 1.71 1.77 1.85 1.85 1.81 1.71 1.68 1.59 1.58 1.61 1.74 1.91 2.03 2.23 2.46 2.59 2.66 2.65 2.59 2.32 2.11 2.07 2.06 2.12 2.25 2.31 2.25
1.67 1.69 1.70 1.58 1.46 1.42 1.45 1.29 1.28 1.37 1.38 1.42 1.48 1.54 1.58 1.59 1.65 1.75 1.69 1.59 1.58 1.56 1.49 1.31 1.26 1.34 1.39 1.52 1.53 1.81 2.10 2.34 2.44 2.50 2.50 2.33 2.09 1.99 1.85 1.92 2.08 2.27 2.30
1.54 1.50 1.47 1.42 1.43 1.40 1.33 1.28 1.26 1.28 1.32 1.34 1.35 1.50 1.60 1.49 1.70 1.71 1.52 1.34 1.31 1.38 1.35 1.22 1.15 1.17 1.12 1.15 1.20 1.44 1.74 1.92 2.07 2.23 2.30 2.17 1.98 1.87 1.93 1.94 1.96 2.00 2.03
1.34 1.29 1.20 1.17 1.21 1.25 1.23 1.26 1.28 1.27 1.27 1.30 1.25 1.34 1.40 1.50 1.57 1.39 1.38 1.27 1.26 1.26 1.28 1.30 1.18 1.10 1.21 1.08 1.07 1.16 1.26 1.41 1.57 1.81 2.00 1.97 2.06 1.97 1.87 1.79 1.80 1.84 1.84
1.21 1.20 1.15 1.10 1.07 1.09 1.12 1.19 1.28 1.24 1.20 1.24 1.21 1.16 1.21 1.36 1.38 1.21 1.27 1.17 1.26 1.31 1.33 1.41 1.41 1.30 1.28 1.37 1.29 1.27 1.21 1.17 1.30 1.22 1.38 1.76 1.93 2.01 1.96 1.97 2.06 1.98 1.80
0.93 0.98 0.97 0.91 0.96 1.04 1.04 1.18 1.27 1.19 1.17 1.14 1.15 1.11 1.14 1.19 1.21 1.11 1.14 1.14 1.28 1.28 1.22 1.36 1.42 1.34 1.46 1.59 1.62 1.62 1.51 1.32 1.48 1.51 1.40 1.50 1.70 1.78 1.88 1.92 1.96 1.90 1.81
0.71 0.74 0.80 0.81 0.85 0.93 1.04 1.15 1.19 1.17 1.16 1.10 1.09 1.05 1.02 1.01 1.10 0.99 1.08 1.14 1.23 1.25 1.25 1.29 1.50 1.42 1.44 1.44 1.46 1.56 1.51 1.33 1.19 1.20 1.19 1.11 1.07 1.20 1.45 1.54 1.79 1.93 1.87
0.66 0.66 0.70 0.73 0.79 0.92 1.02 0.99 0.96 0.99 1.04 1.05 1.08 1.02 0.96 1.00 1.10 1.10 1.15 1.14 1.20 1.24 1.34 1.37 1.35 1.51 1.38 1.32 1.29 1.25 1.35 1.35 1.33 1.36 1.40 1.27 1.18 1.15 1.18 1.23 1.45 1.70 1.86
0.58 0.62 0.61 0.61 0.66 0.74 0.82 0.91 0.90 0.90 0.94 0.92 0.92 0.92 0.88 0.95 1.02 1.00 1.03 1.06 1.15 1.12 1.16 1.17 1.14 1.30 1.16 1.10 1.03 1.07 1.19 1.25 1.30 1.44 1.43 1.35 1.31 1.25 1.23 1.26 1.34 1.44 1.53
0.59 0.62 0.59 0.57 0.59 0.65 0.73 0.84 0.92 0.94 0.92 0.89 0.81 0.77 0.77 0.78 0.85 0.89 0.85 0.84 0.89 0.89 0.88 1.04 1.08 1.07 1.01 0.93 0.99 1.04 1.06 1.09 1.20 1.30 1.30 1.23 1.22 1.29 1.32 1.30 1.34 1.39 1.37
0.57 0.62 0.62 0.63 0.66 0.67 0.69 0.75 0.88 0.94 0.86 0.78 0.77 0.77 0.79 0.79 0.75 0.74 0.76 0.74 0.75 0.82 0.82 0.92 0.96 0.92 0.91 0.91 0.95 0.99 1.02 1.07 1.15 1.19 1.18 1.19 1.20 1.27 1.36 1.33 1.33 1.42 1.49
0.54 0.59 0.59 0.63 0.68 0.67 0.63 0.63 0.70 0.77 0.83 0.85 0.83 0.84 0.86 0.86 0.78 0.73 0.69 0.72 0.77 0.85 0.94 0.89 0.88 0.86 0.87 0.93 0.95 0.96 1.01 1.07 1.07 1.05 1.11 1.15 1.16 1.21 1.25 1.25 1.29 1.34 1.37
0.54 0.58 0.59 0.62 0.67 0.66 0.63 0.63 0.65 0.65 0.74 0.77 0.77 0.79 0.71 0.68 0.69 0.65 0.63 0.67 0.74 0.83 0.97 1.02 1.04 1.08 1.10 1.09 1.06 0.97 0.94 0.98 1.04 1.11 1.16 1.18 1.19 1.18 1.21 1.22 1.25 1.33 1.34
0.62 0.63 0.64 0.64 0.63 0.62 0.64 0.67 0.66 0.62 0.61 0.62 0.63 0.62 0.62 0.65 0.62 0.62 0.63 0.66 0.71 0.77 0.91 1.07 1.10 1.09 1.05 1.03 0.99 0.94 0.88 0.85 0.89 1.01 1.15 1.26 1.27 1.26 1.28 1.33 1.31 1.27 1.25
0.75 0.81 0.75 0.69 0.66 0.63 0.64 0.70 0.71 0.71 0.67 0.58 0.57 0.61 0.61 0.62 0.63 0.66 0.76 0.84 0.79 0.78 0.86 0.95 0.97 0.97 0.92 0.88 0.83 0.80 0.82 0.82 0.83 0.88 0.92 1.03 1.19 1.29 1.36 1.39 1.43 1.46 1.45
0.71 0.77 0.80 0.78 0.75 0.72 0.73 0.80 0.79 0.69 0.63 0.62 0.59 0.61 0.64 0.65 0.67 0.69 0.73 0.75 0.73 0.74 0.76 0.77 0.74 0.74 0.75 0.75 0.74 0.78 0.83 0.82 0.83 0.86 0.86 0.88 0.98 1.14 1.31 1.41 1.46 1.56 1.53
0.57 0.66 0.75 0.79 0.80 0.80 0.83 0.85 0.82 0.74 0.64 0.62 0.60 0.60 0.61 0.61 0.59 0.60 0.61 0.64 0.70 0.70 0.70 0.71 0.73 0.72 0.70 0.70 0.73 0.77 0.85 0.88 0.85 0.88 0.93 0.95 1.03 1.10 1.15 1.26 1.42 1.47 1.39
0.51 0.54 0.62 0.66 0.69 0.71 0.76 0.81 0.83 0.80 0.73 0.68 0.66 0.65 0.66 0.61 0.62 0.61 0.60 0.63 0.65 0.67 0.67 0.69 0.72 0.73 0.71 0.75 0.77 0.79 0.84 0.89 0.89 0.89 0.90 0.97 1.04 1.13 1.18 1.21 1.25 1.30 1.35
0.55 0.54 0.56 0.60 0.62 0.65 0.70 0.72 0.76 0.79 0.78 0.75 0.74 0.75 0.79 0.69 0.66 0.67 0.66 0.67 0.69 0.69 0.70 0.75 0.79 0.77 0.74 0.77 0.82 0.85 0.88 0.89 0.89 0.93 0.99 1.02 1.07 1.10 1.18 1.27 1.28 1.29 1.32
0.55 0.54 0.54 0.60 0.62 0.67 0.70 0.68 0.70 0.71 0.70 0.69 0.68 0.71 0.71 0.68 0.69 0.69 0.72 0.72 0.73 0.75 0.78 0.85 0.88 0.86 0.84 0.84 0.86 0.87 0.89 0.91 0.93 0.97 1.04 1.07 1.08 1.09 1.14 1.21 1.21 1.24 1.26
0.59 0.60 0.63 0.67 0.65 0.64 0.67 0.69 0.68 0.67 0.68 0.68 0.69 0.72 0.72 0.72 0.72 0.71 0.71 0.71 0.71 0.72 0.74 0.80 0.87 0.89 0.92 0.93 0.94 0.91 0.91 0.97 0.97 0.97 1.06 1.17 1.18 1.14 1.16 1.21 1.21 1.22 1.31
0.67 0.67 0.70 0.74 0.75 0.74 0.74 0.73 0.72 0.72 0.73 0.75 0.77 0.78 0.76 0.76 0.74 0.72 0.71 0.72 0.74 0.74 0.74 0.75 0.81 0.88 0.94 0.99 0.98 0.95 1.07 1.11 1.07 1.00 0.98 1.09 1.15 1.18 1.24 1.28 1.33 1.41 1.54
0.71 0.74 0.76 0.77 0.79 0.81 0.84 0.84 0.81 0.82 0.83 0.83 0.83 0.85 0.85 0.86 0.84 0.83 0.81 0.78 0.76 0.74 0.75 0.79 0.83 0.85 0.89 0.97 1.04 1.12 1.13 1.04 1.04 1.12 1.05 1.06 1.13 1.18 1.31 1.41 1.46 1.58 1.67

GEFSGL_prec_meanprecacc_348.txt.gz
Total_Precipitation_Accumulation
1.62 1.70 1.66 1.60 1.61 1.63 1.54 1.46 1.43 1.43 1.42 1.49 1.56 1.70 1.86 2.08 2.29 2.44 2.43 2.36 2.34 2.29 2.21 2.33 2.48 2.54 2.65 2.70 2.74 2.66 2.55 2.51 2.40 2.12 1.91 1.83 2.06 2.12 2.07 1.97 1.80 1.74 1.72
1.48 1.59 1.67 1.58 1.54 1.54 1.45 1.49 1.40 1.33 1.34 1.34 1.48 1.68 1.80 1.89 1.97 2.06 2.12 2.15 2.17 2.18 2.12 2.08 2.15 2.24 2.36 2.53 2.65 2.63 2.65 2.56 2.49 2.42 2.19 1.95 1.88 1.98 2.07 2.19 2.06 1.82 1.77
1.62 1.74 1.74 1.64 1.58 1.55 1.40 1.47 1.41 1.35 1.34 1.32 1.38 1.53 1.63 1.73 1.79 1.84 1.96 2.06 2.07 1.99 1.97 1.86 1.83 1.94 2.07 2.22 2.30 2.42 2.57 2.62 2.64 2.58 2.47 2.24 1.98 1.99 2.09 2.16 2.17 2.23 1.97
1.81 1.88 1.77 1.68 1.62 1.57 1.44 1.37 1.36 1.37 1.35 1.37 1.48 1.53 1.58 1.60 1.73 1.79 1.86 1.86 1.82 1.72 1.69 1.61 1.59 1.62 1.75 1.93 2.05 2.27 2.50 2.63 2.69 2.67 2.61 2.34 2.12 2.07 2.06 2.13 2.26 2.32 2.26
1.70 1.72 1.72 1.60 1.48 1.43 1.47 1.30 1.30 1.39 1.39 1.43 1.49 1.56 1.59 1.59 1.66 1.76 1.71 1.61 1.60 1.58 1.51 1.33 1.28 1.35 1.40 1.54 1.55 1.83 2.13 2.39 2.50 2.55 2.54 2.36 2.11 2.01 1.86 1.93 2.10 2.29 2.33
1.55 1.53 1.50 1.44 1.45 1.41 1.35 1.29 1.27 1.29 1.33 1.36 1.36 1.51 1.61 1.50 1.71 1.73 1.54 1.36 1.33 1.39 1.37 1.23 1.16 1.19 1.14 1.17 1.21 1.46 1.77 1.96 2.11 2.28 2.35 2.21 2.02 1.92 1.96 1.96 1.98 2.03 2.06
1.34 1.31 1.22 1.19 1.22 1.26 1.25 1.27 1.29 1.28 1.29 1.32 1.26 1.35 1.40 1.51 1.59 1.41 1.40 1.29 1.28 1.28 1.30 1.32 1.20 1.11 1.23 1.11 1.09 1.19 1.28 1.43 1.59 1.84 2.03 2.00 2.10 2.01 1.90 1.81 1.82 1.85 1.87
1.22 1.21 1.16 1.11 1.08 1.10 1.14 1.21 1.30 1.25 1.22 1.25 1.23 1.17 1.22 1.37 1.39 1.23 1.30 1.20 1.29 1.33 1.35 1.44 1.43 1.32 1.30 1.39 1.31 1.29 1.23 1.18 1.32 1.23 1.39 1.77 1.94 2.02 1.97 1.98 2.07 1.98 1.81
0.94 0.99 0.98 0.93 0.98 1.07 1.06 1.20 1.30 1.21 1.20 1.16 1.17 1.13 1.14 1.20 1.22 1.13 1.16 1.16 1.30 1.30 1.24 1.39 1.46 1.36 1.49 1.62 1.65 1.64 1.53 1.34 1.49 1.52 1.41 1.52 1.71 1.79 1.89 1.94 1.97 1.90 1.82
0.73 0.75 0.81 0.83 0.88 0.97 1.07 1.18 1.23 1.20 1.20 1.13 1.11 1.06 1.03 1.02 1.12 1.01 1.10 1.16 1.24 1.27 1.27 1.31 1.53 1.45 1.46 1.46 1.48 1.59 1.54 1.35 1.21 1.22 1.21 1.13 1.08 1.21 1.46 1.56 1.81 1.94 1.89
0.68 0.69 0.73 0.76 0.82 0.95 1.07 1.04 1.00 1.03 1.08 1.08 1.10 1.03 0.98 1.03 1.13 1.13 1.17 1.15 1.22 1.26 1.36 1.39 1.38 1.55 1.41 1.35 1.33 1.28 1.38 1.38 1.36 1.39 1.43 1.30 1.20 1.17 1.19 1.25 1.47 1.73 1.89
0.59 0.63 0.62 0.63 0.68 0.76 0.84 0.93 0.93 0.93 0.97 0.95 0.95 0.95 0.91 0.98 1.05 1.05 1.07 1.10 1.19 1.15 1.19 1.20 1.18 1.34 1.20 1.15 1.08 1.12 1.24 1.30 1.36 1.50 1.48 1.40 1.35 1.29 1.26 1.28 1.35 1.46 1.55
0.60 0.62 0.59 0.58 0.60 0.66 0.74 0.85 0.93 0.96 0.94 0.91 0.83 0.80 0.79 0.81 0.88 0.93 0.89 0.88 0.94 0.95 0.93 1.10 1.13 1.12 1.05 0.97 1.03 1.08 1.11 1.13 1.24 1.35 1.35 1.27 1.26 1.32 1.34 1.32 1.35 1.40 1.38
0.57 0.63 0.63 0.64 0.66 0.68 0.70 0.76 0.89 0.95 0.87 0.79 0.79 0.79 0.81 0.81 0.77 0.77 0.79 0.77 0.78 0.86 0.86 0.96 1.01 0.96 0.94 0.94 0.98 1.02 1.04 1.10 1.19 1.21 1.21 1.22 1.22 1.29 1.38 1.36 1.36 1.44 1.50
0.55 0.60 0.60 0.64 0.68 0.68 0.64 0.63 0.71 0.78 0.83 0.85 0.84 0.84 0.87 0.87 0.80 0.75 0.71 0.74 0.79 0.89 0.97 0.94 0.93 0.91 0.89 0.95 0.97 0.97 1.03 1.09 1.10 1.07 1.13 1.17 1.18 1.23 1.26 1.26 1.31 1.36 1.39
0.55 0.59 0.60 0.62 0.68 0.67 0.64 0.64 0.66 0.67 0.76 0.77 0.77 0.79 0.72 0.69 0.71 0.67 0.64 0.69 0.78 0.88 1.02 1.07 1.09 1.12 1.13 1.12 1.08 0.99 0.95 0.99 1.06 1.12 1.17 1.19 1.20 1.19 1.22 1.23 1.26 1.34 1.35
0.63 0.65 0.66 0.65 0.64 0.63 0.67 0.70 0.67 0.63 0.62 0.63 0.64 0.63 0.63 0.66 0.63 0.63 0.64 0.68 0.74 0.82 0.97 1.13 1.15 1.12 1.08 1.05 1.01 0.96 0.90 0.87 0.91 1.03 1.16 1.27 1.27 1.26 1.29 1.33 1.32 1.28 1.26
0.77 0.84 0.78 0.71 0.68 0.64 0.66 0.72 0.73 0.73 0.68 0.59 0.59 0.62 0.62 0.63 0.64 0.67 0.77 0.86 0.82 0.82 0.90 0.99 1.01 1.00 0.95 0.90 0.85 0.81 0.83 0.83 0.85 0.90 0.94 1.04 1.20 1.30 1.37 1.40 1.44 1.47 1.46
0.74 0.82 0.83 0.80 0.77 0.74 0.75 0.82 0.81 0.71 0.64 0.63 0.60 0.62 0.65 0.67 0.69 0.70 0.75 0.77 0.76 0.77 0.79 0.80 0.78 0.77 0.78 0.77 0.76 0.79 0.84 0.83 0.84 0.87 0.87 0.89 1.00 1.16 1.32 1.42 1.47 1.57 1.54
0.61 0.72 0.82 0.84 0.83 0.82 0.86 0.87 0.84 0.76 0.65 0.63 0.61 0.61 0.63 0.63 0.61 0.62 0.62 0.66 0.72 0.73 0.73 0.73 0.76 0.75 0.72 0.72 0.75 0.79 0.86 0.89 0.86 0.88 0.93 0.96 1.04 1.11 1.16 1.26 1.43 1.48 1.40
0.56 0.60 0.69 0.73 0.74 0.75 0.79 0.83 0.85 0.82 0.75 0.70 0.67 0.66 0.68 0.64 0.64 0.62 0.62 0.65 0.68 0.70 0.70 0.71 0.75 0.76 0.75 0.79 0.79 0.81 0.86 0.90 0.90 0.90 0.91 0.98 1.05 1.14 1.19 1.22 1.26 1.31 1.36
0.59 0.59 0.62 0.66 0.68 0.70 0.73 0.74 0.78 0.81 0.80 0.76 0.75 0.77 0.82 0.71 0.68 0.68 0.69 0.70 0.71 0.71 0.72 0.78 0.82 0.80 0.77 0.80 0.85 0.87 0.90 0.90 0.90 0.94 1.00 1.04 1.08 1.12 1.20 1.28 1.29 1.29 1.33
0.58 0.58 0.59 0.65 0.68 0.73 0.74 0.70 0.72 0.73 0.73 0.71 0.70 0.74 0.75 0.71 0.71 0.72 0.75 0.76 0.76 0.77 0.80 0.87 0.90 0.88 0.86 0.86 0.89 0.90 0.92 0.93 0.95 0.98 1.05 1.09 1.09 1.10 1.15 1.22 1.22 1.25 1.28
0.62 0.63 0.66 0.71 0.70 0.69 0.72 0.73 0.73 0.72 0.73 0.72 0.73 0.77 0.78 0.76 0.77 0.75 0.76 0.76 0.75 0.75 0.77 0.82 0.89 0.91 0.93 0.95 0.96 0.94 0.94 1.00 0.99 0.99 1.08 1.19 1.19 1.16 1.18 1.23 1.23 1.25 1.34
0.70 0.70 0.73 0.77 0.79 0.78 0.79 0.79 0.79 0.80 0.81 0.82 0.84 0.85 0.83 0.82 0.80 0.78 0.77 0.77 0.79 0.78 0.78 0.79 0.85 0.91 0.96 1.01 1.00 0.97 1.09 1.14 1.10 1.02 1.01 1.12 1.17 1.20 1.26 1.31 1.36 1.44 1.55
0.75 0.77 0.80 0.81 0.82 0.85 0.89 0.89 0.86 0.88 0.88 0.88 0.89 0.91 0.91 0.92 0.90 0.89 0.87 0.83 0.81 0.78 0.79 0.83 0.87 0.89 0.92 0.99 1.07 1.15 1.17 1.07 1.07 1.14 1.08 1.09 1.15 1.20 1.33 1.44 1.48 1.60 1.68